Latest Weather Observations for Mortlake

IDV60801

Issued at 3:31 pm EST Saturday 29 August 2015 (issued every 30 minutes, with the page automatically refreshed every 10 minutes)

About weather observations | Map of weather stations | Latest weather observations for VIC | Other Formats
Station Details ID: 090176 Name: MORTLAKE RACECOURSE Lat: -38.07 Lon: 142.77 Height: 130.0 m
Data from the previous 72 hours. | See also: Recent months at Mortlake
Date/Time
EST
Temp
°C
App
Temp
°C
Dew
Point
Rel
Hum
%
Delta-T
°C
Wind Press
QNH
hPa
Press
MSL
hPa
Rain
since 9 am
mm
Dir
 
Spd
km/h
Gust
km/h
Spd
kts
Gust
kts
29/03:30pm 9.7 6.2 8.6 93 0.5 SSW 17 24 9 13 1027.1 1027.3 0.0
29/03:00pm 9.9 5.8 8.0 88 0.9 SSW 19 26 10 14 1027.1 1027.3 0.0
29/02:30pm 10.4 5.9 8.5 88 0.9 SSW 22 30 12 16 1027.1 1027.3 0.0
29/02:00pm 8.8 2.9 7.7 93 0.5 SSW 28 37 15 20 1027.3 1027.5 0.0
29/01:30pm 9.2 4.8 7.6 90 0.8 SSW 20 30 11 16 1027.5 1027.8 0.0
29/01:00pm 9.3 5.3 8.2 93 0.5 SSW 19 30 10 16 1027.9 1028.2 0.0
29/12:30pm 9.0 3.8 7.1 88 0.9 SSW 24 39 13 21 1028.4 1028.7 0.0
29/12:00pm 8.4 3.6 7.3 93 0.5 S 22 35 12 19 1028.7 1029.0 0.0
29/11:30am 8.7 4.7 6.8 88 0.9 SW 17 22 9 12 1028.7 1029.0 0.0
29/11:00am 9.4 5.6 7.7 89 0.8 S 17 28 9 15 1028.7 1029.0 0.0
29/10:30am 8.2 3.6 6.5 89 0.8 S 20 26 11 14 1028.9 1029.2 0.0
29/10:00am 9.0 5.5 7.1 88 0.9 SSW 15 20 8 11 1028.9 1029.2 0.0
29/09:30am 8.1 4.3 5.9 86 1.0 SSW 15 22 8 12 1029.0 1029.3 0.0
29/09:00am 6.7 4.4 5.7 93 0.4 WSW 7 9 4 5 1028.9 1029.2 0.4
29/08:30am 4.3 1.9 4.2 99 0.0 W 6 9 3 5 1029.0 1029.3 0.4
29/08:00am 1.4 -0.4 1.3 99 0.0 CALM 0 0 0 0 1028.8 1029.1 0.4
29/07:30am -0.4 -2.5 -0.5 99 0.0 CALM 0 4 0 2 1028.6 1028.9 0.4
29/07:00am -1.1 -3.6 -1.2 99 0.0 W 2 4 1 2 1028.3 1028.6 0.4
29/06:30am -1.2 -3.7 -1.3 99 0.0 W 2 4 1 2 1028.0 1028.3 0.4
29/06:00am -0.2 -2.2 -0.3 99 0.0 CALM 0 0 0 0 1027.9 1028.2 0.4
29/05:30am -1.2 -3.7 -1.3 99 0.0 NW 2 4 1 2 1028.0 1028.3 0.4
29/05:00am -1.3 -3.5 -1.4 99 0.0 CALM 0 0 0 0 1027.8 1028.1 0.4
29/04:30am 0.4 -2.3 0.3 99 0.0 NW 4 4 2 2 1027.9 1028.2 0.4
29/04:00am -0.7 -3.6 -0.8 99 0.0 NW 4 6 2 3 1027.7 1028.0 0.4
29/03:30am 0.1 -2.6 0.0 99 0.0 NW 4 6 2 3 1027.8 1028.1 0.4
29/03:00am 0.6 -2.1 0.5 99 0.0 NW 4 6 2 3 1028.2 1028.5 0.4
29/02:30am 1.2 -0.6 1.1 99 0.0 CALM 0 6 0 3 1028.3 1028.6 0.4
29/02:00am 1.7 0.0 1.6 99 0.0 CALM 0 0 0 0 1028.5 1028.8 0.4
29/01:30am 1.8 0.1 1.7 99 0.0 CALM 0 0 0 0 1028.6 1028.9 0.4
29/01:00am 1.6 -0.5 1.5 99 0.0 NW 2 2 1 1 1028.6 1028.9 0.4
29/12:30am 1.2 -1.4 1.1 99 0.0 NW 4 4 2 2 1028.6 1028.9 0.4
29/12:00am 0.2 -2.5 0.1 99 0.0 WSW 4 4 2 2 1028.5 1028.8 0.4
 
Date/Time
EST
Temp
°C
App
Temp
°C
Dew
Point
Rel
Hum
%
Delta-T
°C
Wind Press
QNH
hPa
Press
MSL
hPa
Rain
since 9 am
mm
Dir
 
Spd
km/h
Gust
km/h
Spd
kts
Gust
kts
28/11:30pm 0.9 -1.0 0.8 99 0.0 CALM 0 0 0 0 1028.7 1029.0 0.4
28/11:00pm 0.6 -2.1 0.5 99 0.0 WNW 4 6 2 3 1028.6 1028.9 0.4
28/10:30pm 0.9 -2.1 0.8 99 0.0 WNW 6 6 3 3 1028.5 1028.8 0.4
28/10:00pm 1.5 -0.3 1.4 99 0.0 CALM 0 0 0 0 1028.6 1028.9 0.4
28/09:30pm 3.0 1.0 2.4 96 0.2 S 2 2 1 1 1028.5 1028.8 0.4
28/09:00pm 3.6 0.9 2.4 92 0.5 S 6 9 3 5 1028.3 1028.6 0.4
28/08:30pm 4.1 0.5 3.2 94 0.4 SSE 11 13 6 7 1028.1 1028.4 0.4
28/08:00pm 5.7 3.1 4.2 90 0.6 S 7 9 4 5 1027.8 1028.1 0.4
28/07:30pm 6.8 4.0 5.1 89 0.8 SSE 9 13 5 7 1027.7 1028.0 0.4
28/07:00pm 6.9 3.8 5.4 90 0.7 SSE 11 13 6 7 1027.5 1027.8 0.4
28/06:30pm 7.7 3.8 5.3 85 1.1 SSE 15 19 8 10 1027.2 1027.4 0.4
28/06:00pm 8.4 4.2 5.9 84 1.1 S 17 22 9 12 1027.0 1027.2 0.4
28/05:30pm 9.0 4.9 6.1 82 1.3 SSE 17 26 9 14 1026.6 1026.8 0.4
28/05:00pm 9.3 4.6 6.2 81 1.4 SSE 20 28 11 15 1026.4 1026.6 0.4
28/04:30pm 9.7 4.5 7.1 84 1.2 SSE 24 30 13 16 1026.1 1026.3 0.4
28/04:00pm 9.9 5.5 7.5 85 1.1 SSE 20 30 11 16 1025.9 1026.1 0.4
28/03:30pm 9.9 5.5 8.8 93 0.5 SSE 22 30 12 16 1026.0 1026.2 0.4
28/03:00pm 11.1 7.4 9.5 90 0.8 SSE 19 28 10 15 1025.8 1026.0 0.4
28/02:30pm 10.2 5.0 10.1 99 0.1 S 28 33 15 18 1025.9 1026.1 0.4
28/02:00pm 12.1 7.6 8.6 79 1.7 SW 22 28 12 15 1025.8 1026.0 0.4
28/01:30pm 12.6 9.4 10.1 85 1.3 SW 17 26 9 14 1026.0 1026.2 0.4
28/01:00pm 10.7 7.3 9.3 91 0.7 SW 17 24 9 13 1026.4 1026.6 0.4
28/12:30pm 11.5 10.1 10.9 96 0.3 S 9 15 5 8 1026.9 1027.1 0.4
28/12:00pm 9.9 6.1 9.8 99 0.1 SSW 20 26 11 14 1027.4 1027.6 0.4
28/11:30am 11.3 9.9 9.6 89 0.9 SSE 7 11 4 6 1027.5 1027.8 0.0
28/11:00am 10.8 8.3 8.4 85 1.2 S 11 15 6 8 1027.7 1028.0 0.0
28/10:30am 10.5 7.2 8.1 85 1.2 S 15 20 8 11 1027.6 1027.9 0.0
28/10:00am 11.3 8.8 8.0 80 1.6 SSW 11 22 6 12 1027.6 1027.9 0.0
28/09:30am 10.3 7.9 7.0 80 1.6 SSW 9 13 5 7 1027.6 1027.9 0.0
28/09:00am 9.8 7.9 7.4 85 1.1 SW 7 9 4 5 1027.4 1027.6 2.4
28/08:30am 8.2 6.3 7.4 95 0.4 SW 7 9 4 5 1027.3 1027.5 2.4
28/08:00am 7.6 5.6 7.2 97 0.2 SSW 7 11 4 6 1027.1 1027.3 2.4
28/07:30am 7.2 5.4 7.1 99 0.0 WSW 6 11 3 6 1027.0 1027.2 2.4
28/07:00am 6.7 5.2 6.6 99 0.0 S 4 6 2 3 1026.7 1026.9 2.4
28/06:30am 6.6 5.4 6.5 99 0.0 S 2 4 1 2 1026.2 1026.4 2.4
28/06:00am 6.5 4.5 6.4 99 0.0 SSW 6 6 3 3 1026.2 1026.4 2.4
28/05:30am 7.0 5.1 6.9 99 0.0 WSW 6 7 3 4 1026.0 1026.2 2.4
28/05:00am 6.7 4.8 6.6 99 0.0 S 6 9 3 5 1025.9 1026.1 2.4
28/04:30am 7.2 4.8 7.1 99 0.0 SSW 9 11 5 6 1025.8 1026.0 2.4
28/04:00am 7.3 4.6 7.2 99 0.0 S 11 15 6 8 1025.7 1025.9 2.4
28/03:30am 7.0 4.2 6.9 99 0.0 SSW 11 13 6 7 1025.7 1025.9 2.4
28/03:00am 7.6 4.6 7.5 99 0.0 SSW 13 15 7 8 1025.8 1026.0 2.4
28/02:30am 8.3 5.0 8.2 99 0.0 SSW 15 19 8 10 1025.8 1026.0 2.4
28/02:00am 8.6 6.2 8.5 99 0.0 SSW 11 17 6 9 1025.9 1026.1 2.4
28/01:30am 8.8 5.7 8.7 99 0.0 SSW 15 22 8 12 1025.8 1026.0 2.4
28/01:00am 8.7 6.3 8.6 99 0.0 SW 11 15 6 8 1025.7 1025.9 2.4
28/12:30am 8.9 6.9 8.8 99 0.0 SW 9 11 5 6 1025.6 1025.8 2.4
28/12:00am 9.0 6.7 8.9 99 0.0 SSW 11 13 6 7 1025.5 1025.7 2.4
 
Date/Time
EST
Temp
°C
App
Temp
°C
Dew
Point
Rel
Hum
%
Delta-T
°C
Wind Press
QNH
hPa
Press
MSL
hPa
Rain
since 9 am
mm
Dir
 
Spd
km/h
Gust
km/h
Spd
kts
Gust
kts
27/11:30pm 8.6 6.9 8.5 99 0.0 SSW 7 9 4 5 1025.5 1025.7 2.4
27/11:00pm 8.7 6.7 8.6 99 0.0 SSW 9 11 5 6 1025.6 1025.8 2.4
27/10:30pm 9.1 7.2 9.0 99 0.0 SSW 9 11 5 6 1025.6 1025.8 2.4
27/10:00pm 9.1 7.6 9.0 99 0.0 S 7 9 4 5 1025.6 1025.8 2.4
27/09:30pm 9.3 7.8 9.2 99 0.0 S 7 11 4 6 1025.5 1025.7 2.4
27/09:00pm 9.3 6.3 9.2 99 0.0 S 15 24 8 13 1025.1 1025.3 2.4
27/08:30pm 9.3 4.6 9.2 99 0.0 S 24 33 13 18 1024.9 1025.1 2.4
27/08:00pm 10.0 6.4 9.9 99 0.1 S 19 28 10 15 1024.5 1024.7 1.8
27/07:30pm 10.0 6.8 9.9 99 0.1 S 17 24 9 13 1024.1 1024.3 1.0
27/07:00pm 10.2 6.5 10.1 99 0.1 S 20 28 11 15 1023.8 1024.0 0.8
27/06:30pm 10.5 7.0 10.3 99 0.1 SSW 19 26 10 14 1023.2 1023.4 0.2
27/06:00pm 10.6 8.3 10.4 99 0.1 SSW 13 17 7 9 1022.9 1023.1 0.2
27/05:30pm 11.1 7.8 10.9 99 0.1 SSW 19 28 10 15 1022.6 1022.8 0.2
27/05:00pm 11.9 7.9 10.6 92 0.7 SSW 22 32 12 17 1022.2 1022.4 0.0
27/04:30pm 12.5 8.2 10.6 88 1.0 SSW 24 33 13 18 1021.7 1022.0 0.0
27/04:00pm 12.9 8.6 10.6 86 1.2 SW 24 33 13 18 1021.4 1021.7 0.0
27/03:30pm 12.8 8.7 10.2 84 1.3 SSW 22 28 12 15 1021.2 1021.5 0.0
27/03:00pm 13.4 8.5 9.8 79 1.9 SSW 26 33 14 18 1021.1 1021.4 0.0
27/02:30pm 13.0 9.4 10.5 85 1.3 SSW 20 28 11 15 1021.3 1021.6 0.0
27/02:00pm 13.5 9.5 10.5 82 1.6 SSW 22 30 12 16 1021.3 1021.6 0.0
27/01:30pm 13.1 10.0 10.3 83 1.5 SSW 17 24 9 13 1021.6 1021.9 0.0
27/01:00pm 13.0 10.4 10.7 86 1.2 SSW 15 19 8 10 1021.9 1022.1 0.0
27/12:30pm 13.1 10.1 10.5 84 1.4 SW 17 24 9 13 1022.0 1022.2 0.0
27/12:00pm 13.6 11.9 11.1 85 1.3 SW 11 19 6 10 1022.2 1022.4 0.0
27/11:30am 11.7 8.5 10.1 90 0.8 SW 17 20 9 11 1022.6 1022.8 0.0
27/11:00am 11.7 10.0 11.2 97 0.3 SW 11 15 6 8 1022.7 1022.9 0.0
27/10:30am 10.9 9.9 10.9 100 0.0 WSW 7 17 4 9 1022.8 1023.0 0.0
27/10:00am 9.9 8.6 9.9 100 0.0 W 7 9 4 5 1022.8 1023.0 0.0
27/09:30am 8.9 7.5 8.9 100 0.0 W 6 7 3 4 1022.9 1023.1 0.0
27/09:00am 8.5 6.8 8.5 100 0.0 NNE 7 9 4 5 1022.8 1023.0 1.0
27/08:30am 8.1 6.9 8.1 100 0.0 NE 4 6 2 3 1022.8 1023.0 1.0
27/08:00am 7.4 6.8 7.4 100 0.0 CALM 0 0 0 0 1022.5 1022.7 1.0
27/07:30am 6.3 5.0 6.2 99 0.0 NE 2 4 1 2 1022.2 1022.4 1.0
27/07:00am 5.0 2.7 4.9 99 0.0 NE 6 7 3 4 1021.9 1022.1 1.0
27/06:30am 2.8 0.9 2.7 99 0.0 NE 2 4 1 2 1021.4 1021.7 1.0
27/06:00am 4.5 2.9 4.4 99 0.0 NE 2 4 1 2 1021.2 1021.5 1.0
27/05:30am 4.8 2.9 4.7 99 0.0 NE 4 6 2 3 1021.0 1021.2 1.0
27/05:00am 4.8 2.5 4.7 99 0.0 NE 6 6 3 3 1021.0 1021.2 1.0
27/04:30am 5.1 2.8 5.0 99 0.0 NE 6 6 3 3 1021.0 1021.2 1.0
27/04:00am 5.8 4.8 5.7 99 0.0 CALM 0 0 0 0 1021.0 1021.2 1.0
27/03:30am 7.1 6.4 7.0 99 0.0 CALM 0 0 0 0 1021.0 1021.2 1.0
27/03:00am 6.6 5.8 6.5 99 0.0 CALM 0 0 0 0 1021.3 1021.6 1.0
27/02:30am 7.1 6.4 7.0 99 0.0 CALM 0 0 0 0 1021.5 1021.8 1.0
27/02:00am 7.3 5.9 7.2 99 0.0 NE 4 4 2 2 1021.6 1021.9 1.0
27/01:30am 7.2 5.4 7.1 99 0.0 NE 6 6 3 3 1021.9 1022.1 1.0
27/01:00am 7.3 6.3 7.2 99 0.0 ENE 2 6 1 3 1022.1 1022.3 1.0
27/12:30am 8.1 7.6 8.0 99 0.0 CALM 0 0 0 0 1022.4 1022.6 1.0
27/12:00am 8.1 7.6 8.0 99 0.0 CALM 0 0 0 0 1022.5 1022.7 1.0
 
Date/Time
EST
Temp
°C
App
Temp
°C
Dew
Point
Rel
Hum
%
Delta-T
°C
Wind Press
QNH
hPa
Press
MSL
hPa
Rain
since 9 am
mm
Dir
 
Spd
km/h
Gust
km/h
Spd
kts
Gust
kts
26/11:30pm 8.2 7.8 8.1 99 0.0 CALM 0 0 0 0 1022.8 1023.0 1.0
26/11:00pm 8.9 8.3 8.8 99 0.0 ENE 2 4 1 2 1023.0 1023.2 1.0
26/10:30pm 8.9 7.9 8.8 99 0.0 ENE 4 4 2 2 1023.2 1023.4 1.0
26/10:00pm 9.0 8.4 8.9 99 0.0 ENE 2 4 1 2 1023.2 1023.4 1.0
26/09:30pm 8.5 7.4 8.4 99 0.0 ENE 4 4 2 2 1023.2 1023.4 1.0
26/09:00pm 8.5 7.4 8.4 99 0.0 E 4 6 2 3 1023.2 1023.4 1.0
26/08:30pm 8.7 7.6 8.6 99 0.0 E 4 4 2 2 1023.3 1023.5 1.0
26/08:00pm 9.3 8.4 9.2 99 0.0 E 4 4 2 2 1023.4 1023.6 1.0
26/07:30pm 10.3 10.0 10.1 99 0.1 E 2 4 1 2 1023.3 1023.5 1.0
26/07:00pm 10.6 10.0 10.4 99 0.1 E 4 6 2 3 1023.3 1023.5 1.0
26/06:30pm 10.7 9.8 10.5 99 0.1 E 6 7 3 4 1022.9 1023.1 1.0
26/06:00pm 11.3 10.3 10.4 94 0.5 E 6 9 3 5 1023.0 1023.2 0.2
26/05:30pm 12.0 10.7 9.9 87 1.1 E 7 11 4 6 1022.8 1023.0 0.2
26/05:00pm 12.4 11.3 10.1 86 1.2 ENE 6 9 3 5 1022.6 1022.8 0.2
26/04:30pm 12.7 11.4 10.1 84 1.3 E 7 9 4 5 1022.5 1022.7 0.2
26/04:00pm 12.8 11.2 10.2 84 1.3 ENE 9 13 5 7 1022.4 1022.6 0.2

Other Formats:

Comma delimited format used in spreadsheet applications
http://www.bom.gov.au/fwo/IDV60801/IDV60801.94840.axf

JavaScript Object Notation format (JSON) in row-major order
http://www.bom.gov.au/fwo/IDV60801/IDV60801.94840.json